Aeroporto :







RITROVATECI SU...

 
LOGIN :

Iscrizione | Disclaimer

   EN    FR    IT 

 









Sommario :    VFR   VFR Marginale   IFR   IFR Intensivo   IFR Molto Intensivo
Visibilità : 
Base nubi : 
>= 8 km
>= 3000ft
5 / 8 km
1000 / 3000 ft
1500m / 5 km
500 / 1000 ft
800 / 1500m
200 / 500 ft
< 800m
< 200 ft
Simboli :   Temporali  Nebbia  Neve Forte  Precipitazioni Forti  Vento > 20 kt






- Altitudine del aeroporto : 59 ft
- Codice IATA : PBM


SMJP - J.A. Pengel Int.

ULTIMO METAR :
  • 221700Z 08006KT 9999 VCSH FEW018CB SCT030 34/23 Q1010 NOSIG

METARs OBSOLETI :
  • 221600Z 12006KT 9999 FEW020CB BKN035 33/24 Q1011 NOSIG
  • 221500Z 08007KT 9999 BKN030 32/25 Q1012 NOSIG

TAF TAF SMJP
Valido dal 22 a 12 ore il 23 a 12 ore UTC


221000Z 2212/2312 10008KT 9999 SCT020 TX35/2218Z TN23/2309Z
PROB30
TEMPO 2217/2221 4000 SHRA FEW015CB SCT018
BECMG 2222/2300 08005KT CAVOK
PROB30
TEMPO 2309/2310 00000KT 4000 BR SCT002
FIR SMPM / Sudamerica



MetMap, La meteo Aeronautica in un colpo d'occhio ! - Copyright ORBIFLY Dicembre 2007 - Disclaimer

ORBIFLY MET'MAP TEAM :

Programmazione e sviluppo : Alexandra Zaïnal
Concezione : Baudouin d'Aumeries
Aiuto per la programmazione : Marc-Olivier Méhu
Supporto tecnico e logistico : Manuel Goepfert
Aiuto per la traduzione : Arnaldo La Scala

Contatto : metmap@orbifly.com




FONTI E CREDITI :

   NOAA